THORAD AGENA D DEB, 42534

Orbit data source: Space-Track

THORAD AGENA D DEB, 42534 is space debris in SSO originally from a launch on Wed, 08 Apr 1970 UTC launched from the Air Force Western Test Range (AFWTR). Debris objects in space refer to the collection of defunct objects orbiting the Earth. Examples of debris include non-operational satellites, rocket bodies, and fragments generated from explosions, collisions, or faulty payload assembly.

Loading next visibility...
Identifier
42534, 1970-025SQ
Orbit
SSO
Country
Flag of USUS
Related business
Manufacturer
Unknown
Mission
Spacecraft
Bus & Motor
Unknown
Mass
Unknown
Launch date (UTC)
1970-04-08 (56 years ago)
Launch vehicle
Unknown
Launch site
Air Force Western Test Range (AFWTR)
Object type
Payload
Rocket body
Debris
Shape & HBR
Unknown shape, 0.1 m
Radar Cross Section
Small (<0.1 m²)

Expand to show TLE details & history
Last TLE update: 15 hours ago

TLE from 15 hours ago
0 THORAD AGENA D DEB
1 42534U 70025SQ  26256.78351264  .00000171  00000-0  72450-3 0  9999
2 42534 101.7367   8.6444 0193254 268.1054  89.7901 12.95642179599802
Epoch: 2026-09-13T18:48Z
TLE epoch observation values (Epoch: 2026-09-13T18:48:15.492Z)
Latitude
0.00001°
Longitude
93.80664°
Altitude
1,284.166 km
Speed
7.213 km/s
True Right ascension
00h 34m 34s
True Declination
0° 00' 00"
Sunlit
Object was in full shadow at epoch
Visualization orbit readout
Latitude
Unknown
Longitude
Unknown
Altitude
Unknown
Speed
Unknown
Apparent Right ascension
Unknown
Apparent Declination
Unknown
Sunlit
N/A
Visualization observer readout
Local Sidereal Time
02:23:22
Azimuth
Unknown
Elevation
Unknown
Doppler factor
Unknown
Orbital elements
Apogee altitude
1,424.63 km
Perigee altitude
1,128.765 km
Semi-major axis
7,654.834 km
Eccentricity
0.01933
Inclination
101.7367°
RAAN
8.6444°
Arg. of periapsis
268.1054°
True anomaly
92.00426°
Mean anomaly
89.7901°
Eccentric anomaly
90.89723°
Mean motion
3.2407 °/min
Orbital period
111.09 mins
BSTAR
0.0007245
Loading maneuver chart data...
Computing Atmospheric mass density...

Documentation

Showing up to 5 results
|